Regional Weather Roundup
Issued by NWS

Home | Current Version | Previous Version | Text Only | Print | Product List | Glossary On
Versions: 1 2 3 4 5 6 7 8 9 10 11 12 13 14 15 16 17 18 19 20 21 22 23 24 25 26 27 28 29 30 31 32 33 34 35 36 37 38 39 40 41 42 43 44 45 46 47 48 49 50
706
ASUS43 KOAX 280010
RWRNE

WEATHER ROUNDUP FOR NEBRASKA
NATIONAL WEATHER SERVICE OMAHA NE
700 PM CDT TUE JUN 27 2017

NOTES: SATELLITE DATA IS BEING USED TO AUGMENT CLOUD COVER ABOVE
       12000 FEET.
       "FAIR" INDICATES FEW OR NO CLOUDS BELOW 12,000 FEET WITH NO
       SIGNIFICANT WEATHER AND/OR OBSTRUCTIONS TO VISIBILITY.

  * THESE STATIONS DO NOT REPORT WEATHER SUCH AS RAIN...SNOW OR FOG.

NEZ001>004-019>022-054>056-280100-
NEBRASKA PANHANDLE

CITY           SKY/WX    TMP DP  RH WIND       PRES   REMARKS
SCOTTSBLUFF    MOSUNNY   87  51  28 NE6       29.68S
6HR MIN TEMP:  79; 6HR MAX TEMP:  96; 6HR PCP:  0.07;

ALLIANCE       CLOUDY    79  54  41 NE9       29.70R
6HR MIN TEMP:  68; 6HR MAX TEMP:  92; 6HR PCP:  0.02;

CHADRON        CLOUDY    67  60  78 SW12      29.67F
6HR MIN TEMP:  64; 6HR MAX TEMP:  95;

GORDON         MOCLDY    76  49  38 S6G13     29.66F
6HR MIN TEMP:  70; 6HR MAX TEMP:  89; 6HR PCP:  0.10;

KIMBALL        PTSUNNY   87  49  26 NW7       29.74R
SIDNEY         CLOUDY    72  57  59 E8        29.72R
6HR MIN TEMP:  69; 6HR MAX TEMP:  93; 6HR PCP:  0.14;

$$

NEZ057>060-069>072-079>082-280100-
SOUTHWEST NEBRASKA

CITY           SKY/WX    TMP DP  RH WIND       PRES   REMARKS
NORTH PLATTE   CLOUDY    87  65  47 E13       29.62F
6HR MIN TEMP:  69; 6HR MAX TEMP:  91;

IMPERIAL       CLOUDY    90  37  15 S13       29.63F
6HR MIN TEMP:  80; 6HR MAX TEMP:  94;

LEXINGTON      PTSUNNY   91  58  32 SE16G23   29.64F HX  90
MCCOOK         MOSUNNY   93  55  27 S28G39    29.61F HX  91
6HR MIN TEMP:  72; 6HR MAX TEMP:  99;

OGALLALA       CLOUDY    86  60  41 N8        29.67R
$$

NEZ005>010-023>029-035>040-094-280100-
NORTH CENTRAL NEBRASKA

CITY           SKY/WX    TMP DP  RH WIND       PRES   REMARKS
VALENTINE      CLOUDY    83  57  41 S21G31    29.66R
6HR MIN TEMP:  83; 6HR MAX TEMP:  92;

AINSWORTH      PTSUNNY   81  64  55 S20G31    29.63F
BROKEN BOW     MOSUNNY   85  66  53 SE16G25   29.67F
6HR MIN TEMP:  77; 6HR MAX TEMP:  86;

O`NEILL        MOSUNNY   82  66  57 S24       29.68F
ORD            SUNNY     83  64  52 SE20G29   29.68F
6HR MIN TEMP:  78; 6HR MAX TEMP:  84;

THEDFORD       CLOUDY    82  64  54 S14G20    29.69F
$$

NEZ041-046>049-061>064-073>077-083>087-280100-
SOUTH CENTRAL NEBRASKA

CITY           SKY/WX    TMP DP  RH WIND       PRES   REMARKS
GRAND ISLAND   SUNNY     82  69  64 SE21G29   29.73F
6HR MIN TEMP:  77; 6HR MAX TEMP:  84;

AURORA         SUNNY     83  67  58 SE18G26   29.74F
HASTINGS       SUNNY     83  68  60 SE18G30   29.74F
6HR MIN TEMP:  77; 6HR MAX TEMP:  86;

HEBRON         SUNNY     85  71  62 S16G25    29.76F HX  90
HOLDREGE       PTSUNNY   90  52  27 S21       29.68F
KEARNEY *      SUNNY     84  66  54 SE24G31   29.69F
YORK           MOSUNNY   82  66  57 S15G23    29.76F
$$

NEZ011>018-030>034-042>045-280100-
NORTHEAST NEBRASKA

CITY           SKY/WX    TMP DP  RH WIND       PRES   REMARKS
NORFOLK        PTSUNNY   80  64  58 S24G32    29.72F
6HR MIN TEMP:  76; 6HR MAX TEMP:  83;

ALBION         SUNNY     81  65  57 S21G28    29.72F
BLAIR          PTSUNNY   78  64  62 SE16G22   29.81F
FREMONT        PTSUNNY   79  64  60 SE14G22   29.79F
TEKAMAH        PTSUNNY   80  62  54 S24G31    29.80F
6HR MIN TEMP:  78; 6HR MAX TEMP:  83;

WAYNE          CLOUDY    80  64  58 S23G31    29.74F
$$

NEZ050>053-065>068-078-088>093-280100-
SOUTHEAST NEBRASKA

CITY           SKY/WX    TMP DP  RH WIND       PRES   REMARKS
LINCOLN        SUNNY     82  67  60 S21G32    29.78F
6HR MIN TEMP:  76; 6HR MAX TEMP:  84;

OMAHA EPPLEY   PTSUNNY   79  63  57 S22G32    29.81F
6HR MIN TEMP:  76; 6HR MAX TEMP:  82;

BEATRICE       MOSUNNY   80  69  70 S16G26    29.80F
FALLS CITY     SUNNY     80  66  62 S15       29.84F
6HR MIN TEMP:  75; 6HR MAX TEMP:  81;

NEBRASKA CITY  SUNNY     78  68  71 S20G25    29.83F
PLATTSMOUTH    MOSUNNY   78  64  62 S14G21    29.83F
$$

NEZ044-045-051>053-067-280100-
OMAHA AREA

CITY           SKY/WX    TMP DP  RH WIND       PRES   REMARKS
OMAHA EPPLEY   PTSUNNY   79  63  57 S22G32    29.81F
6HR MIN TEMP:  76; 6HR MAX TEMP:  82;

BLAIR          PTSUNNY   78  64  62 SE16G22   29.81F
FREMONT        PTSUNNY   79  64  60 SE14G22   29.79F
MILLARD        CLOUDY    81  67  63 SE16G23   29.81F
OFFUTT AFB     SUNNY     79  65  60 SE15      29.81F
PLATTSMOUTH    MOSUNNY   78  64  62 S14G21    29.83F
WAHOO          CLOUDY    81  64  54 S20G25    29.78F
$$




USA.gov is the U.S. government's official web portal to all federal, state and local government web resources and services.